This demonstration page uses our WeatherBlox Daily Observations layout. Learn more.

Left ArrowRight Arrow

Hourly Observations for January 7, 2022

Temp ( °F °C ) Dew Point ( °F °C ) Humidity (%) Winds ( mph kmh ) Pressure ( in mb ) Visibility ( mi km ) Precip ( " mm )
12:53 am 00:53 Cloudy 35 1.7 27 -2.8 72 72 NW 9 15 30.06 1018 10 16 0.00 0.00
2:32 am 02:32 Mostly Clear 31 -0.6 24 -4.4 76 76 NW 9 15 30.14 1021 10 16 0.00 0.00
2:53 am 02:53 Clear 31 -0.6 24 -4.4 76 76 NW 7 11 30.09 1019 10 16 0.00 0.00
3:53 am 03:53 Clear 30 -1.1 23 -5 75 75 WNW 9 15 30.13 1020 10 16 0.00 0.00
4:53 am 04:53 Clear 29 -1.7 23 -5 78 78 NW 8 13 30.14 1021 10 16 0.00 0.00
5:53 am 05:53 Clear 29 -1.7 22 -5.6 75 75 NW 6 9 30.17 1022 10 16 0.00 0.00
6:53 am 06:53 Clear 28 -2.2 20 -6.7 72 72 NW 9 15 30.20 1023 10 16 0.00 0.00
7:53 am 07:53 Sunny 27 -2.8 20 -6.7 75 75 NNW 6 9 30.23 1024 10 16 0.00 0.00
8:53 am 08:53 Sunny 28 -2.2 20 -6.7 72 72 NNW 13 20 30.27 1025 10 16 0.00 0.00
9:53 am 09:53 Sunny 30 -1.1 20 -6.7 66 66 N 8 13 30.29 1026 10 16 0.00 0.00
10:53 am 10:53 Sunny 33 0.6 20 -6.7 58 58 NNW 9 15 30.32 1027 10 16 0.00 0.00
11:53 am 11:53 Sunny 33 0.6 18 -7.8 54 54 NNE 6 9 30.32 1027 10 16 0.00 0.00
12:53 pm 12:53 Sunny 35 1.7 17 -8.3 48 48 N 7 11 30.30 1026 10 16 0.00 0.00
1:53 pm 13:53 Sunny 37 2.8 17 -8.3 44 44 NNW 6 9 30.28 1025 10 16 0.00 0.00
2:53 pm 14:53 Sunny 39 3.9 14 -10 36 36 VRB 5 7 30.27 1025 10 16 0.00 0.00
3:53 pm 15:53 Sunny 39 3.9 12 -11.1 33 33 VRB 3 6 30.27 1025 10 16 0.00 0.00
4:53 pm 16:53 Sunny 39 3.9 12 -11.1 33 33 N 5 7 30.27 1025 10 16 0.00 0.00
5:53 pm 17:53 Clear 36 2.2 13 -10.6 39 39 NW 5 7 30.29 1026 10 16 0.00 0.00
6:53 pm 18:53 Clear 34 1.1 15 -9.4 46 46 NNW 5 7 30.31 1026 10 16 0.00 0.00
7:53 pm 19:53 Clear 33 0.6 15 -9.4 47 47 NW 5 7 30.33 1027 10 16 0.00 0.00
8:53 pm 20:53 Clear 32 0 14 -10 47 47 Calm 30.34 1028 10 16 0.00 0.00
9:53 pm 21:53 Clear 31 -0.6 15 -9.4 52 52 Calm 30.34 1027 10 16 0.00 0.00
10:53 pm 22:53 Clear 31 -0.6 15 -9.4 52 52 Calm 30.35 1028 10 16 0.00 0.00
11:53 pm 23:53 Clear 31 -0.6 16 -8.9 54 54 Calm 30.36 1028 10 16 0.00 0.00

Powered by AerisWeather